Year,Month,Day,Hour,Minute,Value (Times are PST for windgust in km/hr)
2017,05,23,01,24,1.60
2017,05,23,02,22,1.60
2017,05,23,04,59,1.60
2017,05,23,05,27,1.60
2017,05,23,05,29,4.80
2017,05,23,05,30,4.80
2017,05,23,05,31,4.80
2017,05,23,05,32,4.80
2017,05,23,05,33,3.20
2017,05,23,06,06,1.60
2017,05,23,06,53,1.60
2017,05,23,07,13,1.60
2017,05,23,07,21,1.60
2017,05,23,07,31,1.60
2017,05,23,07,34,1.60
2017,05,23,07,41,1.60
2017,05,23,07,48,3.20
2017,05,23,07,49,8.10
2017,05,23,07,50,1.60
2017,05,23,07,51,4.80
2017,05,23,07,52,1.60
2017,05,23,07,55,1.60
2017,05,23,07,57,1.60
2017,05,23,08,04,6.40
2017,05,23,08,05,1.60
2017,05,23,08,06,9.60
2017,05,23,08,07,1.60
2017,05,23,08,08,6.40
2017,05,23,08,09,9.60
2017,05,23,08,10,6.40
2017,05,23,08,11,6.40
2017,05,23,08,15,1.60
2017,05,23,08,19,1.60
2017,05,23,08,21,3.20
2017,05,23,08,22,4.80
2017,05,23,08,23,1.60
2017,05,23,08,24,4.80
2017,05,23,08,25,1.60
2017,05,23,08,30,3.20
2017,05,23,08,32,1.60
2017,05,23,08,34,6.40
2017,05,23,08,35,3.20
2017,05,23,08,36,1.60
2017,05,23,08,40,1.60
2017,05,23,08,41,8.10
2017,05,23,08,42,8.10
2017,05,23,08,43,4.80
2017,05,23,08,44,1.60
2017,05,23,08,45,9.60
2017,05,23,08,46,6.40
2017,05,23,08,48,1.60
2017,05,23,08,49,4.80
2017,05,23,08,52,1.60
2017,05,23,08,53,1.60
2017,05,23,08,54,1.60
2017,05,23,08,57,3.20
2017,05,23,08,58,1.60
2017,05,23,09,01,1.60
2017,05,23,09,06,1.60
2017,05,23,09,09,4.80
2017,05,23,09,10,6.40
2017,05,23,09,11,8.10
2017,05,23,09,12,3.20
2017,05,23,09,13,1.60
2017,05,23,09,14,6.40
2017,05,23,09,15,3.20
2017,05,23,09,16,11.30
2017,05,23,09,17,3.20
2017,05,23,09,18,4.80
2017,05,23,09,19,4.80
2017,05,23,09,20,1.60
2017,05,23,09,22,4.80
2017,05,23,09,23,3.20
2017,05,23,09,24,3.20
2017,05,23,09,25,3.20
2017,05,23,09,26,8.10
2017,05,23,09,27,6.40
2017,05,23,09,28,4.80
2017,05,23,09,29,4.80
2017,05,23,09,30,12.90
2017,05,23,09,31,8.10
2017,05,23,09,32,6.40
2017,05,23,09,33,4.80
2017,05,23,09,35,1.60
2017,05,23,09,36,11.30
2017,05,23,09,37,11.30
2017,05,23,09,38,6.40
2017,05,23,09,39,6.40
2017,05,23,09,40,11.30
2017,05,23,09,41,8.10
2017,05,23,09,42,6.40
2017,05,23,09,43,1.60
2017,05,23,09,44,4.80
2017,05,23,09,45,1.60
2017,05,23,09,46,9.60
2017,05,23,09,47,6.40
2017,05,23,09,48,4.80
2017,05,23,09,49,6.40
2017,05,23,09,50,14.50
2017,05,23,09,51,9.60
2017,05,23,09,52,3.20
2017,05,23,09,53,6.40
2017,05,23,09,54,4.80
2017,05,23,09,55,4.80
2017,05,23,09,56,8.10
2017,05,23,09,57,8.10
2017,05,23,09,58,4.80
2017,05,23,09,59,9.60
2017,05,23,10,00,11.30
2017,05,23,10,01,8.10
2017,05,23,10,03,4.80
2017,05,23,10,04,11.30
2017,05,23,10,05,3.20
2017,05,23,10,06,9.60
2017,05,23,10,07,1.60
2017,05,23,10,08,14.50
2017,05,23,10,09,1.60
2017,05,23,10,10,4.80
2017,05,23,10,11,8.10
2017,05,23,10,12,16.10
2017,05,23,10,13,9.60
2017,05,23,10,14,16.10
2017,05,23,10,15,14.50
2017,05,23,10,16,9.60
2017,05,23,10,17,9.60
2017,05,23,10,18,4.80
2017,05,23,10,19,4.80
2017,05,23,10,20,6.40
2017,05,23,10,21,11.30
2017,05,23,10,22,12.90
2017,05,23,10,23,17.70
2017,05,23,10,24,11.30
2017,05,23,10,25,11.30
2017,05,23,10,26,8.10
2017,05,23,10,27,9.60
2017,05,23,10,28,8.10
2017,05,23,10,29,9.60
2017,05,23,10,30,17.70
2017,05,23,10,31,12.90
2017,05,23,10,32,6.40
2017,05,23,10,33,11.30
2017,05,23,10,34,9.60
2017,05,23,10,35,12.90
2017,05,23,10,36,3.20
2017,05,23,10,37,8.10
2017,05,23,10,38,4.80
2017,05,23,10,39,11.30
2017,05,23,10,40,11.30
2017,05,23,10,41,8.10
2017,05,23,10,42,11.30
2017,05,23,10,43,9.60
2017,05,23,10,44,16.10
2017,05,23,10,45,11.30
2017,05,23,10,46,9.60
2017,05,23,10,47,14.50
2017,05,23,10,48,11.30
2017,05,23,10,49,9.60
2017,05,23,10,50,9.60
2017,05,23,10,51,6.40
2017,05,23,10,52,8.10
2017,05,23,10,53,9.60
2017,05,23,10,54,8.10
2017,05,23,10,55,8.10
2017,05,23,10,56,11.30
2017,05,23,10,57,6.40
2017,05,23,10,58,11.30
2017,05,23,10,59,14.50
2017,05,23,11,00,12.90
2017,05,23,11,01,16.10
2017,05,23,11,02,16.10
2017,05,23,11,03,11.30
2017,05,23,11,04,22.50
2017,05,23,11,05,14.50
2017,05,23,11,06,12.90
2017,05,23,11,07,6.40
2017,05,23,11,08,16.10
2017,05,23,11,09,12.90
2017,05,23,11,10,9.60
2017,05,23,11,11,11.30
2017,05,23,11,12,1.60
2017,05,23,11,13,11.30
2017,05,23,11,14,22.50
2017,05,23,11,15,8.10
2017,05,23,11,16,8.10
2017,05,23,11,17,25.70
2017,05,23,11,18,22.50
2017,05,23,11,19,14.50
2017,05,23,11,20,17.70
2017,05,23,11,21,9.60
2017,05,23,11,22,17.70
2017,05,23,11,23,14.50
2017,05,23,11,24,17.70
2017,05,23,11,25,19.30
2017,05,23,11,26,22.50
2017,05,23,11,27,20.90
2017,05,23,11,28,14.50
2017,05,23,11,29,14.50
2017,05,23,11,30,8.10
2017,05,23,11,31,12.90
2017,05,23,11,32,14.50
2017,05,23,11,33,16.10
2017,05,23,11,34,14.50
2017,05,23,11,35,14.50
2017,05,23,11,36,19.30
2017,05,23,11,37,22.50
2017,05,23,11,38,16.10
2017,05,23,11,39,22.50
2017,05,23,11,40,14.50
2017,05,23,11,41,16.10
2017,05,23,11,42,17.70
2017,05,23,11,43,16.10
2017,05,23,11,44,9.60
2017,05,23,11,45,20.90
2017,05,23,11,46,16.10
2017,05,23,11,47,14.50
2017,05,23,11,48,19.30
2017,05,23,11,49,17.70
2017,05,23,11,50,12.90
2017,05,23,11,51,22.50
2017,05,23,11,52,14.50
2017,05,23,11,53,12.90
2017,05,23,11,54,17.70
2017,05,23,11,55,20.90
2017,05,23,11,56,22.50
2017,05,23,11,57,12.90
2017,05,23,11,58,8.10
2017,05,23,11,59,8.10
2017,05,23,12,00,29.00
2017,05,23,12,01,27.40
2017,05,23,12,02,19.30
2017,05,23,12,03,12.90
2017,05,23,12,04,9.60
2017,05,23,12,05,19.30
2017,05,23,12,06,24.20
2017,05,23,12,07,22.50
2017,05,23,12,08,19.30
2017,05,23,12,09,22.50
2017,05,23,12,10,25.70
2017,05,23,12,11,27.40
2017,05,23,12,12,12.90
2017,05,23,12,13,14.50
2017,05,23,12,14,12.90
2017,05,23,12,15,12.90
2017,05,23,12,16,24.20
2017,05,23,12,17,17.70
2017,05,23,12,18,14.50
2017,05,23,12,19,20.90
2017,05,23,12,20,16.10
2017,05,23,12,21,14.50
2017,05,23,12,22,24.20
2017,05,23,12,23,20.90
2017,05,23,12,24,32.20
2017,05,23,12,25,17.70
2017,05,23,12,26,14.50
2017,05,23,12,27,17.70
2017,05,23,12,28,24.20
2017,05,23,12,29,25.70
2017,05,23,12,30,16.10
2017,05,23,12,31,20.90
2017,05,23,12,32,27.40
2017,05,23,12,33,24.20
2017,05,23,12,34,25.70
2017,05,23,12,35,19.30
2017,05,23,12,36,20.90
2017,05,23,12,37,20.90
2017,05,23,12,38,20.90
2017,05,23,12,39,12.90
2017,05,23,12,40,16.10
2017,05,23,12,41,22.50
2017,05,23,12,42,33.80
2017,05,23,12,43,33.80
2017,05,23,12,44,24.20
2017,05,23,12,45,16.10
2017,05,23,12,46,11.30
2017,05,23,12,47,16.10
2017,05,23,12,48,17.70
2017,05,23,12,49,27.40
2017,05,23,12,50,25.70
2017,05,23,12,51,43.50
2017,05,23,12,52,32.20
2017,05,23,12,53,16.10
2017,05,23,12,54,20.90
2017,05,23,12,55,22.50
2017,05,23,12,56,24.20
2017,05,23,12,57,16.10
2017,05,23,12,58,14.50
2017,05,23,12,59,17.70
2017,05,23,13,00,12.90
2017,05,23,13,01,11.30
2017,05,23,13,02,19.30
2017,05,23,13,03,16.10
2017,05,23,13,04,30.60
2017,05,23,13,05,17.70
2017,05,23,13,06,27.40
2017,05,23,13,07,20.90
2017,05,23,13,08,20.90
2017,05,23,13,09,12.90
2017,05,23,13,10,22.50
2017,05,23,13,11,20.90
2017,05,23,13,12,27.40
2017,05,23,13,13,25.70
2017,05,23,13,14,14.50
2017,05,23,13,15,14.50
2017,05,23,13,16,19.30
2017,05,23,13,17,22.50
2017,05,23,13,18,29.00
2017,05,23,13,19,22.50
2017,05,23,13,20,20.90
2017,05,23,13,21,17.70
2017,05,23,13,22,24.20
2017,05,23,13,23,22.50
2017,05,23,13,24,24.20
2017,05,23,13,25,16.10
2017,05,23,13,26,19.30
2017,05,23,13,27,22.50
2017,05,23,13,28,24.20
2017,05,23,13,29,35.40
2017,05,23,13,30,29.00
2017,05,23,13,31,14.50
2017,05,23,13,32,45.10
2017,05,23,13,33,20.90
2017,05,23,13,34,20.90
2017,05,23,13,35,19.30
2017,05,23,13,36,22.50
2017,05,23,13,37,20.90
2017,05,23,13,38,24.20
2017,05,23,13,39,19.30
2017,05,23,13,40,27.40
2017,05,23,13,41,20.90
2017,05,23,13,42,17.70
2017,05,23,13,43,22.50
2017,05,23,13,44,22.50
2017,05,23,13,45,24.20
2017,05,23,13,46,19.30
2017,05,23,13,47,25.70
2017,05,23,13,48,30.60
2017,05,23,13,49,30.60
2017,05,23,13,50,16.10
2017,05,23,13,51,25.70
2017,05,23,13,52,29.00
2017,05,23,13,53,35.40
2017,05,23,13,54,37.00
2017,05,23,13,55,20.90
2017,05,23,13,56,30.60
2017,05,23,13,57,25.70
2017,05,23,13,58,35.40
2017,05,23,13,59,22.50
2017,05,23,14,00,29.00
2017,05,23,14,01,32.20
2017,05,23,14,02,19.30
2017,05,23,14,03,30.60
2017,05,23,14,04,40.20
2017,05,23,14,05,32.20
2017,05,23,14,06,32.20
2017,05,23,14,07,43.50
2017,05,23,14,08,29.00
2017,05,23,14,09,24.20
2017,05,23,14,10,19.30
2017,05,23,14,11,27.40
2017,05,23,14,12,27.40
2017,05,23,14,13,29.00
2017,05,23,14,14,32.20
2017,05,23,14,15,24.20
2017,05,23,14,16,20.90
2017,05,23,14,17,29.00
2017,05,23,14,18,30.60
2017,05,23,14,19,37.00
2017,05,23,14,20,22.50
2017,05,23,14,21,38.60
2017,05,23,14,22,17.70
2017,05,23,14,23,48.30
2017,05,23,14,24,30.60
2017,05,23,14,25,29.00
2017,05,23,14,26,35.40
2017,05,23,14,27,27.40
2017,05,23,14,28,38.60
2017,05,23,14,29,45.10
2017,05,23,14,30,41.80
2017,05,23,14,31,24.20
2017,05,23,14,32,37.00
2017,05,23,14,33,37.00
2017,05,23,14,34,30.60
2017,05,23,14,35,32.20
2017,05,23,14,36,19.30
2017,05,23,14,37,24.20
2017,05,23,14,38,30.60
2017,05,23,14,39,19.30
2017,05,23,14,40,41.80
2017,05,23,14,41,37.00
2017,05,23,14,42,20.90
2017,05,23,14,43,25.70
2017,05,23,14,44,35.40
2017,05,23,14,45,19.30
2017,05,23,14,46,20.90
2017,05,23,14,47,41.80
2017,05,23,14,48,32.20
2017,05,23,14,49,35.40
2017,05,23,14,50,35.40
2017,05,23,14,51,33.80
2017,05,23,14,52,32.20
2017,05,23,14,53,45.10
2017,05,23,14,54,25.70
2017,05,23,14,55,29.00
2017,05,23,14,56,37.00
2017,05,23,14,57,25.70
2017,05,23,14,58,29.00
2017,05,23,14,59,20.90
2017,05,23,15,00,19.30
2017,05,23,15,01,32.20
2017,05,23,15,02,40.20
2017,05,23,15,03,16.10
2017,05,23,15,04,20.90
2017,05,23,15,05,20.90
2017,05,23,15,06,49.90
2017,05,23,15,07,38.60
2017,05,23,15,08,35.40
2017,05,23,15,09,35.40
2017,05,23,15,10,24.20
2017,05,23,15,11,27.40
2017,05,23,15,12,40.20
2017,05,23,15,13,35.40
2017,05,23,15,14,35.40
2017,05,23,15,15,37.00
2017,05,23,15,16,37.00
2017,05,23,15,17,41.80
2017,05,23,15,18,40.20
2017,05,23,15,19,48.30
2017,05,23,15,20,32.20
2017,05,23,15,21,37.00
2017,05,23,15,22,45.10
2017,05,23,15,23,40.20
2017,05,23,15,24,25.70
2017,05,23,15,25,17.70
2017,05,23,15,26,20.90
2017,05,23,15,27,25.70
2017,05,23,15,28,20.90
2017,05,23,15,29,25.70
2017,05,23,15,30,32.20
2017,05,23,15,31,29.00
2017,05,23,15,32,32.20
2017,05,23,15,33,19.30
2017,05,23,15,34,16.10
2017,05,23,15,35,30.60
2017,05,23,15,36,30.60
2017,05,23,15,37,29.00
2017,05,23,15,38,33.80
2017,05,23,15,39,32.20
2017,05,23,15,40,22.50
2017,05,23,15,41,19.30
2017,05,23,15,42,19.30
2017,05,23,15,43,19.30
2017,05,23,15,44,35.40
2017,05,23,15,45,38.60
2017,05,23,15,46,24.20
2017,05,23,15,47,24.20
2017,05,23,15,48,20.90
2017,05,23,15,49,25.70
2017,05,23,15,50,25.70
2017,05,23,15,51,22.50
2017,05,23,15,52,32.20
2017,05,23,15,53,29.00
2017,05,23,15,54,17.70
2017,05,23,15,55,12.90
2017,05,23,15,56,27.40
2017,05,23,15,57,25.70
2017,05,23,15,58,14.50
2017,05,23,15,59,20.90
2017,05,23,16,00,29.00
2017,05,23,16,01,29.00
2017,05,23,16,02,20.90
2017,05,23,16,03,37.00
2017,05,23,16,04,17.70
2017,05,23,16,05,22.50
2017,05,23,16,06,20.90
2017,05,23,16,07,29.00
2017,05,23,16,08,33.80
2017,05,23,16,09,27.40
2017,05,23,16,10,35.40
2017,05,23,16,11,27.40
2017,05,23,16,12,29.00
2017,05,23,16,13,30.60
2017,05,23,16,14,24.20
2017,05,23,16,15,25.70
2017,05,23,16,16,25.70
2017,05,23,16,17,20.90
2017,05,23,16,18,22.50
2017,05,23,16,19,24.20
2017,05,23,16,20,43.50
2017,05,23,16,21,27.40
2017,05,23,16,22,25.70
2017,05,23,16,23,24.20
2017,05,23,16,24,25.70
2017,05,23,16,25,25.70
2017,05,23,16,26,27.40
2017,05,23,16,27,41.80
2017,05,23,16,28,29.00
2017,05,23,16,29,24.20
2017,05,23,16,30,32.20
2017,05,23,16,31,30.60
2017,05,23,16,32,30.60
2017,05,23,16,33,30.60
2017,05,23,16,34,17.70
2017,05,23,16,35,24.20
2017,05,23,16,36,20.90
2017,05,23,16,37,22.50
2017,05,23,16,38,22.50
2017,05,23,16,39,17.70
2017,05,23,16,40,32.20
2017,05,23,16,41,24.20
2017,05,23,16,42,30.60
2017,05,23,16,43,24.20
2017,05,23,16,44,29.00
2017,05,23,16,45,19.30
2017,05,23,16,46,25.70
2017,05,23,16,47,30.60
2017,05,23,16,48,24.20
2017,05,23,16,49,29.00
2017,05,23,16,50,19.30
2017,05,23,16,51,17.70
2017,05,23,16,52,11.30
2017,05,23,16,53,12.90
2017,05,23,16,54,19.30
2017,05,23,16,55,24.20
2017,05,23,16,56,43.50
2017,05,23,16,57,41.80
2017,05,23,16,58,29.00
2017,05,23,16,59,35.40
2017,05,23,17,00,24.20
2017,05,23,17,01,33.80
2017,05,23,17,02,37.00
2017,05,23,17,03,33.80
2017,05,23,17,04,27.40
2017,05,23,17,05,24.20
2017,05,23,17,06,48.30
2017,05,23,17,07,43.50
2017,05,23,17,08,40.20
2017,05,23,17,09,38.60
2017,05,23,17,10,37.00
2017,05,23,17,11,40.20
2017,05,23,17,12,46.70
2017,05,23,17,13,27.40
2017,05,23,17,14,35.40
2017,05,23,17,15,27.40
2017,05,23,17,16,33.80
2017,05,23,17,17,43.50
2017,05,23,17,18,32.20
2017,05,23,17,19,33.80
2017,05,23,17,20,29.00
2017,05,23,17,21,33.80
2017,05,23,17,22,45.10
2017,05,23,17,23,27.40
2017,05,23,17,24,48.30
2017,05,23,17,25,29.00
2017,05,23,17,26,40.20
2017,05,23,17,27,38.60
2017,05,23,17,28,20.90
2017,05,23,17,29,25.70
2017,05,23,17,30,35.40
2017,05,23,17,31,27.40
2017,05,23,17,32,35.40
2017,05,23,17,33,38.60
2017,05,23,17,34,25.70
2017,05,23,17,35,14.50
2017,05,23,17,36,32.20
2017,05,23,17,37,32.20
2017,05,23,17,38,25.70
2017,05,23,17,39,32.20
2017,05,23,17,40,32.20
2017,05,23,17,41,24.20
2017,05,23,17,42,25.70
2017,05,23,17,43,27.40
2017,05,23,17,44,32.20
2017,05,23,17,45,30.60
2017,05,23,17,46,24.20
2017,05,23,17,47,32.20
2017,05,23,17,48,33.80
2017,05,23,17,49,14.50
2017,05,23,17,50,25.70
2017,05,23,17,51,37.00
2017,05,23,17,52,37.00
2017,05,23,17,53,24.20
2017,05,23,17,54,20.90
2017,05,23,17,55,51.50
2017,05,23,17,56,37.00
2017,05,23,17,57,29.00
2017,05,23,17,58,24.20
2017,05,23,17,59,30.60
2017,05,23,18,00,29.00
2017,05,23,18,01,24.20
2017,05,23,18,02,27.40
2017,05,23,18,03,22.50
2017,05,23,18,04,29.00
2017,05,23,18,05,59.50
2017,05,23,18,06,38.60
2017,05,23,18,07,48.30
2017,05,23,18,08,41.80
2017,05,23,18,09,43.50
2017,05,23,18,10,27.40
2017,05,23,18,11,27.40
2017,05,23,18,12,37.00
2017,05,23,18,13,48.30
2017,05,23,18,14,48.30
2017,05,23,18,15,38.60
2017,05,23,18,16,45.10
2017,05,23,18,17,29.00
2017,05,23,18,18,30.60
2017,05,23,18,19,32.20
2017,05,23,18,20,30.60
2017,05,23,18,21,46.70
2017,05,23,18,22,41.80
2017,05,23,18,23,29.00
2017,05,23,18,24,43.50
2017,05,23,18,25,25.70
2017,05,23,18,26,40.20
2017,05,23,18,27,37.00
2017,05,23,18,28,27.40
2017,05,23,18,29,22.50
2017,05,23,18,30,30.60
2017,05,23,18,31,33.80
2017,05,23,18,32,27.40
2017,05,23,18,33,40.20
2017,05,23,18,34,35.40
2017,05,23,18,35,41.80
2017,05,23,18,36,37.00
2017,05,23,18,37,45.10
2017,05,23,18,38,48.30
2017,05,23,18,39,49.90
2017,05,23,18,40,54.70
2017,05,23,18,41,38.60
2017,05,23,18,42,30.60
2017,05,23,18,43,43.50
2017,05,23,18,44,48.30
2017,05,23,18,45,29.00
2017,05,23,18,46,43.50
2017,05,23,18,47,29.00
2017,05,23,18,48,32.20
2017,05,23,18,49,48.30
2017,05,23,18,50,48.30
2017,05,23,18,51,29.00
2017,05,23,18,52,48.30
2017,05,23,18,53,48.30
2017,05,23,18,54,37.00
2017,05,23,18,55,33.80
2017,05,23,18,56,45.10
2017,05,23,18,57,57.90
2017,05,23,18,58,35.40
2017,05,23,18,59,46.70
2017,05,23,19,00,53.10
2017,05,23,19,01,38.60
2017,05,23,19,02,49.90
2017,05,23,19,03,25.70
2017,05,23,19,04,38.60
2017,05,23,19,05,45.10
2017,05,23,19,06,27.40
2017,05,23,19,07,20.90
2017,05,23,19,08,30.60
2017,05,23,19,09,41.80
2017,05,23,19,10,35.40
2017,05,23,19,11,48.30
2017,05,23,19,12,35.40
2017,05,23,19,13,37.00
2017,05,23,19,14,24.20
2017,05,23,19,15,22.50
2017,05,23,19,16,32.20
2017,05,23,19,17,45.10
2017,05,23,19,18,27.40
2017,05,23,19,19,32.20
2017,05,23,19,20,38.60
2017,05,23,19,21,56.30
2017,05,23,19,22,40.20
2017,05,23,19,23,48.30
2017,05,23,19,24,38.60
2017,05,23,19,25,46.70
2017,05,23,19,26,45.10
2017,05,23,19,27,35.40
2017,05,23,19,28,38.60
2017,05,23,19,29,43.50
2017,05,23,19,30,32.20
2017,05,23,19,31,37.00
2017,05,23,19,32,45.10
2017,05,23,19,33,35.40
2017,05,23,19,34,46.70
2017,05,23,19,35,37.00
2017,05,23,19,36,25.70
2017,05,23,19,37,38.60
2017,05,23,19,38,38.60
2017,05,23,19,39,40.20
2017,05,23,19,40,38.60
2017,05,23,19,41,33.80
2017,05,23,19,42,38.60
2017,05,23,19,43,40.20
2017,05,23,19,44,45.10
2017,05,23,19,45,61.20
2017,05,23,19,46,48.30
2017,05,23,19,47,40.20
2017,05,23,19,48,38.60
2017,05,23,19,49,43.50
2017,05,23,19,50,64.40
2017,05,23,19,51,48.30
2017,05,23,19,52,40.20
2017,05,23,19,53,33.80
2017,05,23,19,54,17.70
2017,05,23,19,55,29.00
2017,05,23,19,56,43.50
2017,05,23,19,57,46.70
2017,05,23,19,58,38.60
2017,05,23,19,59,48.30
2017,05,23,20,00,38.60
2017,05,23,20,01,45.10
2017,05,23,20,02,53.10
2017,05,23,20,03,51.50
2017,05,23,20,04,27.40
2017,05,23,20,05,35.40
2017,05,23,20,06,33.80
2017,05,23,20,07,54.70
2017,05,23,20,08,40.20
2017,05,23,20,09,25.70
2017,05,23,20,10,38.60
2017,05,23,20,11,25.70
2017,05,23,20,12,35.40
2017,05,23,20,13,38.60
2017,05,23,20,14,25.70
2017,05,23,20,15,46.70
2017,05,23,20,16,56.30
2017,05,23,20,17,29.00
2017,05,23,20,18,41.80
2017,05,23,20,19,20.90
2017,05,23,20,20,32.20
2017,05,23,20,21,30.60
2017,05,23,20,22,38.60
2017,05,23,20,23,25.70
2017,05,23,20,24,30.60
2017,05,23,20,25,24.20
2017,05,23,20,26,24.20
2017,05,23,20,27,35.40
2017,05,23,20,28,33.80
2017,05,23,20,29,35.40
2017,05,23,20,30,32.20
2017,05,23,20,31,32.20
2017,05,23,20,32,32.20
2017,05,23,20,33,30.60
2017,05,23,20,34,24.20
2017,05,23,20,35,33.80
2017,05,23,20,36,27.40
2017,05,23,20,37,43.50
2017,05,23,20,38,49.90
2017,05,23,20,39,30.60
2017,05,23,20,40,24.20
2017,05,23,20,41,30.60
2017,05,23,20,42,43.50
2017,05,23,20,43,38.60
2017,05,23,20,44,43.50
2017,05,23,20,45,33.80
2017,05,23,20,46,30.60
2017,05,23,20,47,40.20
2017,05,23,20,48,27.40
2017,05,23,20,49,29.00
2017,05,23,20,50,37.00
2017,05,23,20,51,38.60
2017,05,23,20,52,30.60
2017,05,23,20,53,33.80
2017,05,23,20,54,20.90
2017,05,23,20,55,29.00
2017,05,23,20,56,38.60
2017,05,23,20,57,30.60
2017,05,23,20,58,32.20
2017,05,23,20,59,57.90
2017,05,23,21,00,30.60
2017,05,23,21,01,33.80
2017,05,23,21,02,37.00
2017,05,23,21,03,33.80
2017,05,23,21,04,49.90
2017,05,23,21,05,43.50
2017,05,23,21,06,30.60
2017,05,23,21,07,35.40
2017,05,23,21,08,48.30
2017,05,23,21,09,43.50
2017,05,23,21,10,33.80
2017,05,23,21,11,40.20
2017,05,23,21,12,37.00
2017,05,23,21,13,37.00
2017,05,23,21,14,32.20
2017,05,23,21,15,49.90
2017,05,23,21,16,59.50
2017,05,23,21,17,37.00
2017,05,23,21,18,33.80
2017,05,23,21,19,27.40
2017,05,23,21,20,16.10
2017,05,23,21,21,45.10
2017,05,23,21,22,33.80
2017,05,23,21,23,30.60
2017,05,23,21,24,59.50
2017,05,23,21,25,22.50
2017,05,23,21,26,20.90
2017,05,23,21,27,22.50
2017,05,23,21,28,29.00
2017,05,23,21,29,38.60
2017,05,23,21,30,24.20
2017,05,23,21,31,33.80
2017,05,23,21,32,25.70
2017,05,23,21,33,32.20
2017,05,23,21,34,32.20
2017,05,23,21,35,37.00
2017,05,23,21,36,22.50
2017,05,23,21,37,24.20
2017,05,23,21,38,30.60
2017,05,23,21,39,17.70
2017,05,23,21,40,27.40
2017,05,23,21,41,38.60
2017,05,23,21,42,32.20
2017,05,23,21,43,24.20
2017,05,23,21,44,14.50
2017,05,23,21,45,20.90
2017,05,23,21,46,19.30
2017,05,23,21,47,30.60
2017,05,23,21,48,38.60
2017,05,23,21,49,37.00
2017,05,23,21,50,32.20
2017,05,23,21,51,35.40
2017,05,23,21,52,22.50
2017,05,23,21,53,19.30
2017,05,23,21,54,35.40
2017,05,23,21,55,30.60
2017,05,23,21,56,38.60
2017,05,23,21,57,32.20
2017,05,23,21,58,24.20
2017,05,23,21,59,27.40
2017,05,23,22,00,41.80
2017,05,23,22,01,27.40
2017,05,23,22,02,33.80
2017,05,23,22,03,25.70
2017,05,23,22,04,29.00
2017,05,23,22,05,38.60
2017,05,23,22,06,24.20
2017,05,23,22,07,22.50
2017,05,23,22,08,40.20
2017,05,23,22,09,33.80
2017,05,23,22,10,29.00
2017,05,23,22,11,33.80
2017,05,23,22,12,25.70
2017,05,23,22,13,24.20
2017,05,23,22,14,22.50
2017,05,23,22,15,32.20
2017,05,23,22,16,38.60
2017,05,23,22,17,38.60
2017,05,23,22,18,35.40
2017,05,23,22,19,30.60
2017,05,23,22,20,19.30
2017,05,23,22,21,17.70
2017,05,23,22,22,19.30
2017,05,23,22,23,19.30
2017,05,23,22,24,24.20
2017,05,23,22,25,17.70
2017,05,23,22,26,24.20
2017,05,23,22,27,24.20
2017,05,23,22,28,24.20
2017,05,23,22,29,24.20
2017,05,23,22,30,33.80
2017,05,23,22,31,41.80
2017,05,23,22,32,30.60
2017,05,23,22,33,20.90
2017,05,23,22,34,29.00
2017,05,23,22,35,27.40
2017,05,23,22,36,16.10
2017,05,23,22,37,22.50
2017,05,23,22,38,32.20
2017,05,23,22,39,30.60
2017,05,23,22,40,29.00
2017,05,23,22,41,16.10
2017,05,23,22,42,22.50
2017,05,23,22,43,17.70
2017,05,23,22,44,16.10
2017,05,23,22,45,25.70
2017,05,23,22,46,30.60
2017,05,23,22,47,19.30
2017,05,23,22,48,30.60
2017,05,23,22,49,20.90
2017,05,23,22,50,30.60
2017,05,23,22,51,37.00
2017,05,23,22,52,25.70
2017,05,23,22,53,32.20
2017,05,23,22,54,25.70
2017,05,23,22,55,16.10
2017,05,23,22,56,22.50
2017,05,23,22,57,22.50
2017,05,23,22,58,19.30
2017,05,23,22,59,25.70
2017,05,23,23,00,33.80
2017,05,23,23,01,25.70
2017,05,23,23,02,32.20
2017,05,23,23,03,30.60
2017,05,23,23,04,16.10
2017,05,23,23,05,20.90
2017,05,23,23,06,12.90
2017,05,23,23,07,12.90
2017,05,23,23,08,24.20
2017,05,23,23,09,30.60
2017,05,23,23,10,25.70
2017,05,23,23,11,17.70
2017,05,23,23,12,20.90
2017,05,23,23,13,29.00
2017,05,23,23,14,27.40
2017,05,23,23,15,16.10
2017,05,23,23,16,19.30
2017,05,23,23,17,25.70
2017,05,23,23,18,20.90
2017,05,23,23,19,16.10
2017,05,23,23,20,8.10
2017,05,23,23,21,12.90
2017,05,23,23,22,20.90
2017,05,23,23,23,19.30
2017,05,23,23,24,19.30
2017,05,23,23,25,32.20
2017,05,23,23,26,25.70
2017,05,23,23,27,27.40
2017,05,23,23,28,12.90
2017,05,23,23,29,12.90
2017,05,23,23,30,20.90
2017,05,23,23,31,20.90
2017,05,23,23,32,19.30
2017,05,23,23,33,12.90
2017,05,23,23,34,12.90
2017,05,23,23,35,17.70
2017,05,23,23,36,20.90
2017,05,23,23,37,22.50
2017,05,23,23,38,6.40
2017,05,23,23,39,11.30
2017,05,23,23,40,16.10
2017,05,23,23,41,20.90
2017,05,23,23,42,20.90
2017,05,23,23,43,17.70
2017,05,23,23,44,19.30
2017,05,23,23,45,12.90
2017,05,23,23,46,12.90
2017,05,23,23,47,29.00
2017,05,23,23,48,14.50
2017,05,23,23,49,41.80
2017,05,23,23,50,22.50
2017,05,23,23,51,12.90
2017,05,23,23,52,17.70
2017,05,23,23,53,14.50
2017,05,23,23,54,14.50
2017,05,23,23,55,24.20
2017,05,23,23,56,20.90
2017,05,23,23,57,12.90
2017,05,23,23,58,17.70
2017,05,23,23,59,29.00
